Location: Allie Creek
(37.5926°N, 89.8526°W)
Time: 12:16:23
(UTC+00:00)

Cosmos 1805 - Pass Details

Date: 26 September 2023
Orbit: 502 x 504 km, 82.5° (Epoch: 29 November)

Event Time Altitude Azimuth Distance (km) Brightness Sun altitude
Rises 00:41:24 0° 171° (S) 2,583 6.6 -10.6°
Reaches altitude 10° 00:43:35 10° 164° (SSE) 1,703 5.6 -11.0°
Maximum altitude 00:47:07 42° 93° (E) 725 3.5 -11.7°
Drops below altitude 10° 00:50:40 10° 22° (NNE) 1,715 5.7 -12.4°
Sets 00:52:52 0° 15° (NNE) 2,604 6.7 -12.9°
